RH
16 17 18 20 20 21 22 22 22 22 23 23 22 23 31 30 46 43 30 27 24 18 18 21 23 24 23 23 24 27 38 44 47
17 20 20 20 21 21 21 21 21 21 22 22 23 24 28 31 39 32 28 22 21 18 18 22 24 37 22 22 19 18 17 18 29
20 20 19 20 21 21 21 21 21 22 22 22 23 26 31 47 64 40 20 16 14 14 18 20 53 20 21 19 18 18 18 22 30
21 19 20 21 22 22 22 22 22 22 23 23 24 30 35 51 52 53 56 44 23 36 77 80 55 40 40 73 56 43 27 22 26
20 20 21 22 22 22 22 21 21 22 22 24 28 42 70 79 80 95 91 98 92 96 95 89 87 74 72 66 74 80 55 47 25
20 20 22 22 21 20 20 21 25 28 30 34 44 57 77 66 94 95 93 99 100 98 87 99 93 88 84 78 77 81 68 54 32
21 23 22 20 19 20 21 24 38 45 45 51 54 55 70 52 82 85 97 96 98 96 96 98 95 92 80 69 67 67 94 90 85
23 24 23 20 19 20 21 24 44 60 54 52 54 66 77 56 46 69 95 98 98 99 97 98 84 79 86 83 75 68 78 97 98
26 25 23 22 21 20 21 26 38 61 60 60 62 65 78 53 33 49 65 93 98 96 97 99 95 84 79 78 69 86 84 82 74
30 31 25 21 22 22 23 26 51 59 55 52 51 52 59 47 36 36 42 52 56 88 99 97 98 90 88 80 74 60 59 68 86
22 25 27 21 20 22 23 24 36 63 61 57 46 37 36 40 37 36 29 26 25 27 39 92 99 93 88 82 82 93 97 94 86
21 20 22 21 20 21 24 24 32 48 62 68 66 56 48 37 34 30 34 38 38 33 22 21 31 99 98 95 93 93 90 88 94
21 21 20 20 20 24 24 26 29 48 53 62 59 65 58 47 40 39 39 36 36 36 33 30 25 36 96 97 93 95 92 97 98
22 21 20 20 20 21 25 24 28 51 58 61 63 60 52 58 46 37 33 31 33 33 33 34 33 32 29 48 93 100 99 98 94
23 22 22 20 20 20 22 24 27 35 54 54 53 55 49 57 61 48 39 30 31 31 29 36 36 35 33 34 42 81 97 91 87
23 23 22 21 21 21 21 23 25 32 51 52 55 54 56 43 54 69 44 28 28 27 29 32 30 33 32 31 32 33 33 34 36
24 23 23 22 21 21 22 22 22 27 39 60 61 68 61 50 55 55 38 32 30 28 28 36 35 32 32 31 32 31 30 33 36
25 26 25 24 23 22 22 22 22 22 33 45 49 50 61 53 50 53 43 37 34 30 30 35 35 34 34 36 36 36 37 38 39
27 26 26 26 24 24 24 23 23 22 22 27 36 47 42 53 58 54 47 40 36 36 36 36 37 37 36 40 39 40 40 44 48
27 26 26 27 26 26 26 25 24 25 24 25 24 24 27 43 50 55 52 54 56 48 47 46 48 50 46 48 47 46 51 53 55
Wind_Speed
11 10 10 10 10 11 11 11 11 11 11 12 12 12 13 12 10 4 3 3 8 8 6 5 5 5 5 4 3 3 3 3 3
10 10 10 10 10 10 10 10 10 10 10 10 11 11 10 10 8 7 7 8 9 9 7 7 7 6 7 6 6 5 4 3 1
10 10 10 10 9 9 10 10 10 10 10 10 10 10 10 14 9 9 11 10 10 10 9 9 8 7 8 8 7 7 6 5 4
10 9 9 9 9 9 10 10 11 11 11 12 12 12 14 11 8 14 17 15 13 13 13 11 12 11 12 12 10 9 7 5 4
9 9 9 9 9 10 10 10 11 13 12 12 12 15 17 6 13 18 21 18 16 15 15 12 13 14 14 12 14 10 8 8 5
8 9 8 9 9 9 10 11 12 15 15 14 16 16 11 8 14 17 14 12 13 13 12 18 15 16 14 15 12 11 13 9 9
7 7 8 8 9 10 10 10 13 13 13 15 15 11 7 9 10 12 14 13 13 12 13 14 13 11 12 13 14 12 13 12 12
6 6 7 8 7 9 9 10 13 13 11 12 12 13 6 10 9 10 15 12 13 14 15 13 14 15 13 15 17 16 13 13 14
5 5 6 7 8 8 10 10 13 14 12 11 10 12 6 10 9 9 8 13 13 14 13 16 17 16 14 17 13 13 12 11 12
7 5 6 7 7 9 9 11 13 10 10 10 10 11 9 9 11 10 8 7 9 14 14 13 15 17 15 16 18 16 15 16 16
8 6 6 6 7 9 9 10 12 11 9 10 10 10 10 8 10 10 10 10 9 9 10 12 11 16 16 15 15 16 17 13 11
9 8 7 7 8 9 10 10 12 12 11 11 9 9 9 10 8 9 10 10 11 11 10 10 10 12 14 10 9 9 7 8 7
10 9 8 8 8 9 10 11 13 13 11 10 8 10 8 8 9 10 9 9 10 10 10 10 9 7 8 7 6 6 7 8 11
11 10 9 9 9 9 9 11 12 14 11 12 9 8 9 6 6 8 9 9 8 9 10 10 9 8 8 8 12 13 14 13 13
13 11 11 10 9 9 10 10 13 13 12 10 10 8 7 6 5 6 7 8 8 8 8 8 8 8 8 7 8 11 11 11 12
14 12 12 12 11 11 10 11 11 14 14 11 10 8 6 5 6 4 4 6 7 6 6 5 5 7 7 7 7 8 9 11 13
15 14 13 13 12 12 11 10 12 13 14 9 7 7 5 3 4 3 4 5 5 6 5 4 3 5 6 6 6 7 8 10 12
16 15 14 13 13 13 13 12 11 11 13 15 7 6 4 7 4 3 2 2 3 3 4 3 1 4 5 5 6 7 9 11 14
19 17 16 15 14 13 12 12 10 11 10 12 9 7 9 7 7 5 2 1 1 2 3 2 1 3 4 5 8 9 11 14 17
20 19 18 17 15 14 13 13 12 11 11 9 10 9 9 11 9 11 8 2 3 2 1 1 2 4 7 9 9 11 15 18 19
Wind_Direction
101 95 92 89 85 81 77 73 69 69 70 72 77 83 79 81 99 107 64 28 33 35 36 32 31 27 15 12 5 342 342 328 354
105 102 97 90 85 82 79 75 72 70 71 74 78 83 80 75 63 52 33 34 30 34 43 46 40 36 25 21 19 17 15 3 329
106 102 96 90 85 83 80 78 77 75 76 79 85 88 80 78 49 37 49 42 41 43 47 49 49 37 35 31 22 23 25 30 25
108 99 92 87 85 84 82 80 77 74 74 79 86 84 80 73 62 59 57 50 53 57 58 55 47 51 50 39 29 32 27 29 8
109 99 91 86 84 82 81 81 80 76 77 83 90 89 83 80 78 72 61 56 54 60 58 58 59 49 41 38 33 24 32 32 19
110 99 90 88 87 85 87 89 89 83 76 83 83 83 90 82 98 90 84 65 64 61 67 58 51 48 39 39 43 34 23 34 31
111 103 100 95 93 93 95 97 92 80 79 84 80 78 92 72 121 89 75 65 66 59 78 68 69 59 40 29 24 31 46 44 52
128 116 110 103 103 101 102 97 103 98 89 89 106 98 63 66 101 100 92 75 72 71 65 59 61 44 42 33 35 47 63 51 47
129 113 108 106 102 102 100 101 102 112 114 114 113 109 94 69 79 93 80 86 74 66 68 71 59 53 42 44 55 62 56 51 42
168 158 136 125 122 115 115 113 104 98 109 117 114 111 110 82 81 78 77 68 60 72 64 66 75 59 54 48 57 60 60 58 58
175 166 156 145 133 134 129 122 120 106 108 94 95 100 103 91 83 79 73 66 59 55 60 68 80 76 62 64 71 74 79 77 67
180 175 166 155 143 136 130 131 132 132 117 115 113 93 88 93 90 75 77 73 64 60 59 59 83 106 76 70 74 75 64 40 34
190 183 173 162 155 149 141 137 135 130 130 129 120 120 109 88 90 85 72 57 65 58 61 61 64 95 119 96 58 46 26 17 33
192 190 178 170 167 157 152 145 144 144 146 140 138 129 116 111 93 88 79 69 64 64 66 64 61 60 59 61 63 59 54 45 35
194 189 185 177 171 166 156 158 149 148 140 142 140 135 127 116 100 77 65 61 67 63 61 67 62 58 57 52 52 58 54 41 34
199 194 190 182 177 172 165 159 156 152 152 151 136 124 124 94 125 101 58 65 77 64 72 56 58 72 53 48 44 37 30 25 20
203 200 194 192 184 181 173 172 161 161 158 143 127 135 134 104 137 137 88 73 60 68 71 93 43 46 46 35 30 22 16 11 5
205 202 200 198 189 187 183 179 169 169 174 169 164 164 167 155 138 134 119 66 47 51 66 95 29 20 5 9 359 350 348 346 345
206 205 202 201 196 192 187 184 180 173 171 175 192 184 167 173 159 160 158 17 26 46 35 61 348 339 333 336 328 329 329 330 330
209 207 204 203 199 194 191 186 185 180 182 174 169 162 172 176 159 165 156 165 323 349 342 311 317 312 322 309 311 314 318 324 324